01.01.2019 00:15;8,21
01.01.2019 00:30;8,053
01.01.2019 00:45;7,888
01.01.2019 01:00;7,726
01.01.2019 01:15;7,549
01.01.2019 01:30;7,381
01.01.2019 01:45;7,203
01.01.2019 02:00;7,06
01.01.2019 02:15;6,974
01.01.2019 02:30;6,862
01.01.2019 02:45;6,778
01.01.2019 03:00;6,722
01.01.2019 03:15;6,759
01.01.2019 03:30;6,671
01.01.2019 03:45;6,611
01.01.2019 04:00;6,595
01.01.2019 04:15;6,619
01.01.2019 04:30;6,523
01.01.2019 04:45;6,538
01.01.2019 05:00;6,513
01.01.2019 05:15;6,612
01.01.2019 05:30;6,474
01.01.2019 05:45;6,25
01.01.2019 06:00;6,113
01.01.2019 06:15;6,129
01.01.2019 06:30;6,251
01.01.2019 06:45;6,29
01.01.2019 07:00;6,344
01.01.2019 07:15;6,374
01.01.2019 07:30;6,497
01.01.2019 07:45;6,899
01.01.2019 08:00;7,128
01.01.2019 08:15;6,969
01.01.2019 08:30;6,665
01.01.2019 08:45;6,565
01.01.2019 09:00;6,76
01.01.2019 09:15;7,019
01.01.2019 09:30;7,358
01.01.2019 09:45;7,636
01.01.2019 10:00;7,79
01.01.2019 10:15;7,932
01.01.2019 10:30;8,044
01.01.2019 10:45;8,308
01.01.2019 11:00;8,702
01.01.2019 11:15;8,886
01.01.2019 11:30;9,124
01.01.2019 11:45;9,419
01.01.2019 12:00;9,608
01.01.2019 12:15;9,547
01.01.2019 12:30;9,395
01.01.2019 12:45;9,32
01.01.2019 13:00;9,257
01.01.2019 13:15;9,198
01.01.2019 13:30;9,222
01.01.2019 13:45;9,075
01.01.2019 14:00;9,027
01.01.2019 14:15;9,077
01.01.2019 14:30;9,096
01.01.2019 14:45;9,162
01.01.2019 15:00;9,261
01.01.2019 15:15;9,417
01.01.2019 15:30;9,46
01.01.2019 15:45;9,315
01.01.2019 16:00;9,358
01.01.2019 16:15;9,589
01.01.2019 16:30;9,754
01.01.2019 16:45;10,034
01.01.2019 17:00;10,373
01.01.2019 17:15;10,963
01.01.2019 17:30;11,28
01.01.2019 17:45;11,526
01.01.2019 18:00;11,446
01.01.2019 18:15;11,287
01.01.2019 18:30;11,132
01.01.2019 18:45;11,143
01.01.2019 19:00;10,947
01.01.2019 19:15;10,983
01.01.2019 19:30;10,991
01.01.2019 19:45;11,118
01.01.2019 20:00;11,053
01.01.2019 20:15;10,919
01.01.2019 20:30;10,42
01.01.2019 20:45;10,127
01.01.2019 21:00;10,274
01.01.2019 21:15;10,205
01.01.2019 21:30;10,075
01.01.2019 21:45;10,185
01.01.2019 22:00;10,075
01.01.2019 22:15;10,638
01.01.2019 22:30;10,806
01.01.2019 22:45;10,457
01.01.2019 23:00;10,239
01.01.2019 23:15;10,109
01.01.2019 23:30;9,966
01.01.2019 23:45;9,583
02.01.2019 00:00;9,356
02.01.2019 00:15;9,013
02.01.2019 00:30;8,731
02.01.2019 00:45;8,273
02.01.2019 01:00;8,116
02.01.2019 01:15;7,965
02.01.2019 01:30;7,743
02.01.2019 01:45;7,521
02.01.2019 02:00;7,478
02.01.2019 02:15;7,609
02.01.2019 02:30;7,785
02.01.2019 02:45;7,856
02.01.2019 03:00;7,507
02.01.2019 03:15;7,493
02.01.2019 03:30;7,544
02.01.2019 03:45;7,649
02.01.2019 04:00;7,722
02.01.2019 04:15;7,88
02.01.2019 04:30;7,989
02.01.2019 04:45;8,083
02.01.2019 05:00;8,225
02.01.2019 05:15;8,449
02.01.2019 05:30;8,397
02.01.2019 05:45;8,424
02.01.2019 06:00;8,414
02.01.2019 06:15;8,563
02.01.2019 06:30;8,748
02.01.2019 06:45;9,011
02.01.2019 07:00;9,171
02.01.2019 07:15;9,396
02.01.2019 07:30;9,595
02.01.2019 07:45;9,98
02.01.2019 08:00;10,249
02.01.2019 08:15;10,47
02.01.2019 08:30;10,488
02.01.2019 08:45;10,412
02.01.2019 09:00;10,363
02.01.2019 09:15;10,401
02.01.2019 09:30;10,46
02.01.2019 09:45;10,452
02.01.2019 10:00;10,58
02.01.2019 10:15;10,832
02.01.2019 10:30;10,732
02.01.2019 10:45;10,393
02.01.2019 11:00;10,493
02.01.2019 11:15;10,544
02.01.2019 11:30;10,677
02.01.2019 11:45;10,811
02.01.2019 12:00;10,924
02.01.2019 12:15;11,005
02.01.2019 12:30;11,247
02.01.2019 12:45;10,952
02.01.2019 13:00;10,703
02.01.2019 13:15;10,226
02.01.2019 13:30;10,007
02.01.2019 13:45;9,696
02.01.2019 14:00;9,647
02.01.2019 14:15;9,688
02.01.2019 14:30;9,844
02.01.2019 14:45;9,96
02.01.2019 15:00;10,051
02.01.2019 15:15;9,984
02.01.2019 15:30;10,102
02.01.2019 15:45;10,044
02.01.2019 16:00;10,157
02.01.2019 16:15;10,433
02.01.2019 16:30;10,564
02.01.2019 16:45;11,042
02.01.2019 17:00;11,243
02.01.2019 17:15;11,901
02.01.2019 17:30;12,367
02.01.2019 17:45;12,425
02.01.2019 18:00;12,252
02.01.2019 18:15;12,092
02.01.2019 18:30;12,126
02.01.2019 18:45;12,257
02.01.2019 19:00;12,244
02.01.2019 19:15;12,016
02.01.2019 19:30;11,866
02.01.2019 19:45;11,914
02.01.2019 20:00;11,904
02.01.2019 20:15;11,761
02.01.2019 20:30;11,692
02.01.2019 20:45;11,416
02.01.2019 21:00;11,028
02.01.2019 21:15;10,671
02.01.2019 21:30;10,412
02.01.2019 21:45;10,634
02.01.2019 22:00;10,757
02.01.2019 22:15;10,958
02.01.2019 22:30;10,678
02.01.2019 22:45;10,413
02.01.2019 23:00;10,059
02.01.2019 23:15;9,687
02.01.2019 23:30;9,42
02.01.2019 23:45;9,156
03.01.2019 00:00;8,848
03.01.2019 00:15;8,549
03.01.2019 00:30;8,349
03.01.2019 00:45;8,165
03.01.2019 01:00;7,997
03.01.2019 01:15;7,857
03.01.2019 01:30;7,751
03.01.2019 01:45;7,582
03.01.2019 02:00;7,461
03.01.2019 02:15;7,379
03.01.2019 02:30;7,289
03.01.2019 02:45;7,246
03.01.2019 03:00;7,184
03.01.2019 03:15;7,189
03.01.2019 03:30;7,127
03.01.2019 03:45;7,104
03.01.2019 04:00;7,107
03.01.2019 04:15;7,128
03.01.2019 04:30;7,172
03.01.2019 04:45;7,278
03.01.2019 05:00;7,283
03.01.2019 05:15;7,44
03.01.2019 05:30;7,466
03.01.2019 05:45;7,486
03.01.2019 06:00;7,558
03.01.2019 06:15;7,7
03.01.2019 06:30;8,004
03.01.2019 06:45;8,251
03.01.2019 07:00;8,562
03.01.2019 07:15;8,818
03.01.2019 07:30;8,994
03.01.2019 07:45;9,169
03.01.2019 08:00;9,4
03.01.2019 08:15;9,628
03.01.2019 08:30;9,599
03.01.2019 08:45;9,691
03.01.2019 09:00;9,821
03.01.2019 09:15;9,925
03.01.2019 09:30;10,065
03.01.2019 09:45;10,103
03.01.2019 10:00;10,253
03.01.2019 10:15;10,328
03.01.2019 10:30;10,366
03.01.2019 10:45;10,305
03.01.2019 11:00;10,352
03.01.2019 11:15;10,433
03.01.2019 11:30;10,568
03.01.2019 11:45;10,738
03.01.2019 12:00;10,784
03.01.2019 12:15;10,758
03.01.2019 12:30;10,721
03.01.2019 12:45;10,725
03.01.2019 13:00;10,67
03.01.2019 13:15;10,597
03.01.2019 13:30;10,597
03.01.2019 13:45;10,617
03.01.2019 14:00;10,561
03.01.2019 14:15;10,539
03.01.2019 14:30;10,522
03.01.2019 14:45;10,395
03.01.2019 15:00;10,309
03.01.2019 15:15;10,335
03.01.2019 15:30;10,357
03.01.2019 15:45;10,325
03.01.2019 16:00;10,288
03.01.2019 16:15;10,425
03.01.2019 16:30;10,613
03.01.2019 16:45;10,826
03.01.2019 17:00;11,154
03.01.2019 17:15;11,696
03.01.2019 17:30;11,964
03.01.2019 17:45;12,169
03.01.2019 18:00;12,219
03.01.2019 18:15;12,184
03.01.2019 18:30;12,131
03.01.2019 18:45;12,069
03.01.2019 19:00;11,973
03.01.2019 19:15;11,9
03.01.2019 19:30;11,803
03.01.2019 19:45;11,645
03.01.2019 20:00;11,397
03.01.2019 20:15;11,151
03.01.2019 20:30;10,863
03.01.2019 20:45;10,605
03.01.2019 21:00;10,447
03.01.2019 21:15;10,293
03.01.2019 21:30;10,092
03.01.2019 21:45;10,23
03.01.2019 22:00;10,478
03.01.2019 22:15;10,864
03.01.2019 22:30;10,652
03.01.2019 22:45;10,329
03.01.2019 23:00;10,004
03.01.2019 23:15;9,704
03.01.2019 23:30;9,408
03.01.2019 23:45;9,078
04.01.2019 00:00;8,8
04.01.2019 00:15;8,524
04.01.2019 00:30;8,307
04.01.2019 00:45;8,082
04.01.2019 01:00;7,911
04.01.2019 01:15;7,789
04.01.2019 01:30;7,638
04.01.2019 01:45;7,529
04.01.2019 02:00;7,489
04.01.2019 02:15;7,442
04.01.2019 02:30;7,368
04.01.2019 02:45;7,338
04.01.2019 03:00;7,31
04.01.2019 03:15;7,303
04.01.2019 03:30;7,257
04.01.2019 03:45;7,221
04.01.2019 04:00;7,226
04.01.2019 04:15;7,269
04.01.2019 04:30;7,32
04.01.2019 04:45;7,382
04.01.2019 05:00;7,437
04.01.2019 05:15;7,629
04.01.2019 05:30;7,622
04.01.2019 05:45;7,596
04.01.2019 06:00;7,724
04.01.2019 06:15;7,925
04.01.2019 06:30;8,144
04.01.2019 06:45;8,358
04.01.2019 07:00;8,585
04.01.2019 07:15;8,943
04.01.2019 07:30;9,159
04.01.2019 07:45;9,313
04.01.2019 08:00;9,574
04.01.2019 08:15;9,856
04.01.2019 08:30;9,897
04.01.2019 08:45;9,981
04.01.2019 09:00;9,959
04.01.2019 09:15;10,022
04.01.2019 09:30;10,131
04.01.2019 09:45;10,191
04.01.2019 10:00;10,092
04.01.2019 10:15;10,108
04.01.2019 10:30;10,135
04.01.2019 10:45;9,875
04.01.2019 11:00;9,702
04.01.2019 11:15;9,61
04.01.2019 11:30;9,575
04.01.2019 11:45;9,604
04.01.2019 12:00;9,758
04.01.2019 12:15;9,637
04.01.2019 12:30;9,615
04.01.2019 12:45;9,742
04.01.2019 13:00;9,836
04.01.2019 13:15;9,857
04.01.2019 13:30;9,933
04.01.2019 13:45;10,027
04.01.2019 14:00;10,066
04.01.2019 14:15;10,119
04.01.2019 14:30;10,214
04.01.2019 14:45;10,195
04.01.2019 15:00;10,187
04.01.2019 15:15;10,296
04.01.2019 15:30;10,283
04.01.2019 15:45;10,248
04.01.2019 16:00;10,303
04.01.2019 16:15;10,612
04.01.2019 16:30;10,86
04.01.2019 16:45;11,12
04.01.2019 17:00;11,509
04.01.2019 17:15;11,831
04.01.2019 17:30;12,116
04.01.2019 17:45;12,101
04.01.2019 18:00;12,015
04.01.2019 18:15;12,03
04.01.2019 18:30;11,971
04.01.2019 18:45;11,879
04.01.2019 19:00;11,848
04.01.2019 19:15;11,704
04.01.2019 19:30;11,501
04.01.2019 19:45;11,359
04.01.2019 20:00;11,264
04.01.2019 20:15;10,991
04.01.2019 20:30;10,87
04.01.2019 20:45;10,617
04.01.2019 21:00;10,432
04.01.2019 21:15;10,293
04.01.2019 21:30;9,966
04.01.2019 21:45;10,272
04.01.2019 22:00;10,389
04.01.2019 22:15;10,836
04.01.2019 22:30;10,595
04.01.2019 22:45;10,344
04.01.2019 23:00;10,118
04.01.2019 23:15;9,871
04.01.2019 23:30;9,71
04.01.2019 23:45;9,509
05.01.2019 00:00;9,398
05.01.2019 00:15;9,24
05.01.2019 00:30;9,068
05.01.2019 00:45;8,74
05.01.2019 01:00;8,539
05.01.2019 01:15;8,35
05.01.2019 01:30;8,19
05.01.2019 01:45;8,087
05.01.2019 02:00;8,119
05.01.2019 02:15;8,192
05.01.2019 02:30;8,063
05.01.2019 02:45;7,819
05.01.2019 03:00;7,726
05.01.2019 03:15;7,763
05.01.2019 03:30;7,639
05.01.2019 03:45;7,585
05.01.2019 04:00;7,629
05.01.2019 04:15;7,739
05.01.2019 04:30;8,051
05.01.2019 04:45;8,323
05.01.2019 05:00;8,457
05.01.2019 05:15;8,584
05.01.2019 05:30;8,535
05.01.2019 05:45;8,524
05.01.2019 06:00;8,559
05.01.2019 06:15;8,75
05.01.2019 06:30;8,914
05.01.2019 06:45;8,942
05.01.2019 07:00;9,051
05.01.2019 07:15;9,23
05.01.2019 07:30;9,433
05.01.2019 07:45;9,556
05.01.2019 08:00;9,813
05.01.2019 08:15;10,23
05.01.2019 08:30;10,353
05.01.2019 08:45;10,398
05.01.2019 09:00;10,576
05.01.2019 09:15;10,876
05.01.2019 09:30;11,054
05.01.2019 09:45;11,278
05.01.2019 10:00;11,452
05.01.2019 10:15;11,555
05.01.2019 10:30;11,564
05.01.2019 10:45;11,637
05.01.2019 11:00;11,64
05.01.2019 11:15;11,616
05.01.2019 11:30;11,661
05.01.2019 11:45;11,677
05.01.2019 12:00;11,626
05.01.2019 12:15;11,525
05.01.2019 12:30;11,469
05.01.2019 12:45;11,259
05.01.2019 13:00;11,14
05.01.2019 13:15;11,223
05.01.2019 13:30;11,285
05.01.2019 13:45;11,495
05.01.2019 14:00;11,682
05.01.2019 14:15;11,729
05.01.2019 14:30;11,665
05.01.2019 14:45;11,713
05.01.2019 15:00;11,603
05.01.2019 15:15;11,483
05.01.2019 15:30;11,492
05.01.2019 15:45;11,351
05.01.2019 16:00;11,346
05.01.2019 16:15;11,405
05.01.2019 16:30;11,433
05.01.2019 16:45;11,577
05.01.2019 17:00;11,809
05.01.2019 17:15;12,436
05.01.2019 17:30;12,744
05.01.2019 17:45;13,036
05.01.2019 18:00;13,103
05.01.2019 18:15;13,076
05.01.2019 18:30;12,995
05.01.2019 18:45;12,908
05.01.2019 19:00;12,723
05.01.2019 19:15;12,483
05.01.2019 19:30;12,327
05.01.2019 19:45;12,176
05.01.2019 20:00;12,064
05.01.2019 20:15;11,882
05.01.2019 20:30;11,672
05.01.2019 20:45;11,503
05.01.2019 21:00;11,365
05.01.2019 21:15;11,073
05.01.2019 21:30;10,913
05.01.2019 21:45;11,005
05.01.2019 22:00;11,043
05.01.2019 22:15;11,319
05.01.2019 22:30;11,124
05.01.2019 22:45;10,915
05.01.2019 23:00;10,792
05.01.2019 23:15;10,559
05.01.2019 23:30;10,279
05.01.2019 23:45;10,057
06.01.2019 00:00;9,812
06.01.2019 00:15;9,426
06.01.2019 00:30;9,173
06.01.2019 00:45;9,061
06.01.2019 01:00;8,775
06.01.2019 01:15;8,528
06.01.2019 01:30;8,331
06.01.2019 01:45;8,201
06.01.2019 02:00;8,107
06.01.2019 02:15;8,123
06.01.2019 02:30;8,002
06.01.2019 02:45;7,877
06.01.2019 03:00;7,916
06.01.2019 03:15;8,014
06.01.2019 03:30;8,139
06.01.2019 03:45;8,153
06.01.2019 04:00;8,251
06.01.2019 04:15;8,307
06.01.2019 04:30;8,263
06.01.2019 04:45;8,182
06.01.2019 05:00;8,074
06.01.2019 05:15;8,202
06.01.2019 05:30;8,115
06.01.2019 05:45;7,896
06.01.2019 06:00;7,735
06.01.2019 06:15;7,555
06.01.2019 06:30;7,559
06.01.2019 06:45;7,641
06.01.2019 07:00;7,4
06.01.2019 07:15;7,43
06.01.2019 07:30;7,612
06.01.2019 07:45;7,922
06.01.2019 08:00;8,289
06.01.2019 08:15;8,462
06.01.2019 08:30;8,582
06.01.2019 08:45;8,794
06.01.2019 09:00;8,904
06.01.2019 09:15;9,133
06.01.2019 09:30;9,359
06.01.2019 09:45;9,564
06.01.2019 10:00;9,843
06.01.2019 10:15;10,267
06.01.2019 10:30;10,359
06.01.2019 10:45;10,408
06.01.2019 11:00;10,532
06.01.2019 11:15;10,602
06.01.2019 11:30;10,919
06.01.2019 11:45;11,006
06.01.2019 12:00;11,071
06.01.2019 12:15;11,024
06.01.2019 12:30;10,957
06.01.2019 12:45;10,766
06.01.2019 13:00;10,625
06.01.2019 13:15;10,484
06.01.2019 13:30;10,22
06.01.2019 13:45;10,138
06.01.2019 14:00;10,103
06.01.2019 14:15;10,038
06.01.2019 14:30;9,984
06.01.2019 14:45;9,896
06.01.2019 15:00;9,847
06.01.2019 15:15;9,836
06.01.2019 15:30;9,751
06.01.2019 15:45;9,63
06.01.2019 16:00;9,68
06.01.2019 16:15;9,791
06.01.2019 16:30;9,996
06.01.2019 16:45;10,203
06.01.2019 17:00;10,545
06.01.2019 17:15;11,015
06.01.2019 17:30;11,271
06.01.2019 17:45;11,417
06.01.2019 18:00;11,493
06.01.2019 18:15;11,641
06.01.2019 18:30;11,62
06.01.2019 18:45;11,405
06.01.2019 19:00;11,254
06.01.2019 19:15;11,193
06.01.2019 19:30;10,996
06.01.2019 19:45;10,865
06.01.2019 20:00;10,669
06.01.2019 20:15;10,478
06.01.2019 20:30;10,21
06.01.2019 20:45;10,072
06.01.2019 21:00;9,893
06.01.2019 21:15;9,649
06.01.2019 21:30;9,49
06.01.2019 21:45;9,612
06.01.2019 22:00;9,771
06.01.2019 22:15;10,199
06.01.2019 22:30;10,044
06.01.2019 22:45;9,7
06.01.2019 23:00;9,407
06.01.2019 23:15;9,056
06.01.2019 23:30;8,735
06.01.2019 23:45;8,391
07.01.2019 00:00;8,128
07.01.2019 00:15;7,909
07.01.2019 00:30;7,658
07.01.2019 00:45;7,41
07.01.2019 01:00;7,228
07.01.2019 01:15;7,1
07.01.2019 01:30;6,928
07.01.2019 01:45;6,838
07.01.2019 02:00;6,792
07.01.2019 02:15;6,697
07.01.2019 02:30;6,71
07.01.2019 02:45;6,637
07.01.2019 03:00;6,626
07.01.2019 03:15;6,721
07.01.2019 03:30;6,692
07.01.2019 03:45;6,697
07.01.2019 04:00;6,727
07.01.2019 04:15;6,846
07.01.2019 04:30;6,922
07.01.2019 04:45;7,079
07.01.2019 05:00;7,178
07.01.2019 05:15;7,458
07.01.2019 05:30;7,51
07.01.2019 05:45;7,594
07.01.2019 06:00;7,794
07.01.2019 06:15;8,058
07.01.2019 06:30;8,522
07.01.2019 06:45;8,857
07.01.2019 07:00;9,128
07.01.2019 07:15;9,434
07.01.2019 07:30;9,588
07.01.2019 07:45;9,711
07.01.2019 08:00;9,935
07.01.2019 08:15;10,118
07.01.2019 08:30;10,185
07.01.2019 08:45;10,17
07.01.2019 09:00;10,166
07.01.2019 09:15;10,124
07.01.2019 09:30;10,128
07.01.2019 09:45;10,093
07.01.2019 10:00;10,103
07.01.2019 10:15;10,096
07.01.2019 10:30;10,075
07.01.2019 10:45;10,115
07.01.2019 11:00;10,178
07.01.2019 11:15;10,242
07.01.2019 11:30;10,365
07.01.2019 11:45;10,398
07.01.2019 12:00;10,41
07.01.2019 12:15;10,38
07.01.2019 12:30;10,272
07.01.2019 12:45;10,211
07.01.2019 13:00;10,124
07.01.2019 13:15;9,961
07.01.2019 13:30;9,772
07.01.2019 13:45;9,589
07.01.2019 14:00;9,567
07.01.2019 14:15;9,552
07.01.2019 14:30;9,56
07.01.2019 14:45;9,628
07.01.2019 15:00;9,567
07.01.2019 15:15;9,688
07.01.2019 15:30;9,748
07.01.2019 15:45;9,844
07.01.2019 16:00;9,962
07.01.2019 16:15;10,17
07.01.2019 16:30;10,419
07.01.2019 16:45;10,675
07.01.2019 17:00;10,969
07.01.2019 17:15;11,395
07.01.2019 17:30;11,651
07.01.2019 17:45;11,92
07.01.2019 18:00;12,033
07.01.2019 18:15;12,015
07.01.2019 18:30;11,989
07.01.2019 18:45;11,801
07.01.2019 19:00;11,791
07.01.2019 19:15;11,742
07.01.2019 19:30;11,617
07.01.2019 19:45;11,462
07.01.2019 20:00;11,464
07.01.2019 20:15;11,498
07.01.2019 20:30;11,255
07.01.2019 20:45;11,044
07.01.2019 21:00;10,92
07.01.2019 21:15;10,668
07.01.2019 21:30;10,531
07.01.2019 21:45;10,739
07.01.2019 22:00;11,06
07.01.2019 22:15;11,403
07.01.2019 22:30;11,247
07.01.2019 22:45;11
07.01.2019 23:00;10,734
07.01.2019 23:15;10,463
07.01.2019 23:30;10,253
07.01.2019 23:45;9,962
08.01.2019 00:00;9,66
08.01.2019 00:15;9,384
08.01.2019 00:30;9,144
08.01.2019 00:45;9,187
08.01.2019 01:00;9,042
08.01.2019 01:15;8,738
08.01.2019 01:30;8,395
08.01.2019 01:45;8,578
08.01.2019 02:00;8,694
08.01.2019 02:15;8,66
08.01.2019 02:30;8,694
08.01.2019 02:45;8,683
08.01.2019 03:00;8,701
08.01.2019 03:15;8,726
08.01.2019 03:30;8,718
08.01.2019 03:45;8,762
08.01.2019 04:00;8,646
08.01.2019 04:15;8,659
08.01.2019 04:30;8,706
08.01.2019 04:45;8,852
08.01.2019 05:00;8,929
08.01.2019 05:15;8,941
08.01.2019 05:30;8,928
08.01.2019 05:45;8,597
08.01.2019 06:00;8,384
08.01.2019 06:15;8,6
08.01.2019 06:30;9,372
08.01.2019 06:45;9,872
08.01.2019 07:00;10,11
08.01.2019 07:15;10,128
08.01.2019 07:30;10,394
08.01.2019 07:45;10,504
08.01.2019 08:00;10,799
08.01.2019 08:15;11,011
08.01.2019 08:30;11,23
08.01.2019 08:45;11,312
08.01.2019 09:00;11,256
08.01.2019 09:15;11,173
08.01.2019 09:30;11,146
08.01.2019 09:45;11,111
08.01.2019 10:00;11,256
08.01.2019 10:15;11,459
08.01.2019 10:30;11,556
08.01.2019 10:45;11,586
08.01.2019 11:00;11,714
08.01.2019 11:15;11,925
08.01.2019 11:30;12,071
08.01.2019 11:45;12,102
08.01.2019 12:00;12,092
08.01.2019 12:15;11,871
08.01.2019 12:30;11,901
08.01.2019 12:45;11,869
08.01.2019 13:00;11,911
08.01.2019 13:15;11,789
08.01.2019 13:30;11,582
08.01.2019 13:45;11,649
08.01.2019 14:00;11,699
08.01.2019 14:15;11,702
08.01.2019 14:30;11,661
08.01.2019 14:45;11,74
08.01.2019 15:00;11,711
08.01.2019 15:15;11,679
08.01.2019 15:30;11,765
08.01.2019 15:45;11,797
08.01.2019 16:00;11,854
08.01.2019 16:15;11,704
08.01.2019 16:30;11,874
08.01.2019 16:45;12,065
08.01.2019 17:00;12,324
08.01.2019 17:15;12,668
08.01.2019 17:30;13,16
08.01.2019 17:45;13,435
08.01.2019 18:00;13,495
08.01.2019 18:15;13,624
08.01.2019 18:30;13,735
08.01.2019 18:45;13,698
08.01.2019 19:00;13,528
08.01.2019 19:15;13,349
08.01.2019 19:30;13,131
08.01.2019 19:45;12,937
08.01.2019 20:00;12,907
08.01.2019 20:15;12,703
08.01.2019 20:30;12,482
08.01.2019 20:45;12,215
08.01.2019 21:00;12,037
08.01.2019 21:15;11,739
08.01.2019 21:30;11,524
08.01.2019 21:45;11,632
08.01.2019 22:00;11,878
08.01.2019 22:15;11,749
08.01.2019 22:30;11,701
08.01.2019 22:45;11,494
08.01.2019 23:00;11,055
08.01.2019 23:15;10,507
08.01.2019 23:30;10,303
08.01.2019 23:45;10,046
09.01.2019 00:00;9,813
09.01.2019 00:15;9,668
09.01.2019 00:30;9,399
09.01.2019 00:45;9,272
09.01.2019 01:00;9,054
09.01.2019 01:15;8,737
09.01.2019 01:30;8,702
09.01.2019 01:45;8,42
09.01.2019 02:00;8,45
09.01.2019 02:15;8,47
09.01.2019 02:30;8,41
09.01.2019 02:45;8,428
09.01.2019 03:00;8,399
09.01.2019 03:15;8,108
09.01.2019 03:30;8,207
09.01.2019 03:45;8,407
09.01.2019 04:00;8,491
09.01.2019 04:15;8,642
09.01.2019 04:30;8,744
09.01.2019 04:45;8,896
09.01.2019 05:00;8,97
09.01.2019 05:15;8,999
09.01.2019 05:30;9,021
09.01.2019 05:45;9,287
09.01.2019 06:00;9,527
09.01.2019 06:15;9,906
09.01.2019 06:30;10,141
09.01.2019 06:45;10,534
09.01.2019 07:00;10,861
09.01.2019 07:15;11,132
09.01.2019 07:30;11,26
09.01.2019 07:45;11,412
09.01.2019 08:00;11,429
09.01.2019 08:15;11,569
09.01.2019 08:30;11,596
09.01.2019 08:45;11,409
09.01.2019 09:00;11,228
09.01.2019 09:15;11,131
09.01.2019 09:30;11,115
09.01.2019 09:45;10,995
09.01.2019 10:00;11,074
09.01.2019 10:15;11,34
09.01.2019 10:30;11,472
09.01.2019 10:45;11,218
09.01.2019 11:00;11,411
09.01.2019 11:15;11,547
09.01.2019 11:30;11,69
09.01.2019 11:45;11,507
09.01.2019 12:00;11,57
09.01.2019 12:15;11,662
09.01.2019 12:30;11,684
09.01.2019 12:45;11,511
09.01.2019 13:00;11,355
09.01.2019 13:15;11,593
09.01.2019 13:30;11,699
09.01.2019 13:45;11,683
09.01.2019 14:00;11,393
09.01.2019 14:15;11,199
09.01.2019 14:30;11,075
09.01.2019 14:45;10,924
09.01.2019 15:00;10,871
09.01.2019 15:15;11,11
09.01.2019 15:30;11,059
09.01.2019 15:45;10,997
09.01.2019 16:00;11,195
09.01.2019 16:15;11,568
09.01.2019 16:30;11,923
09.01.2019 16:45;12,154
09.01.2019 17:00;12,383
09.01.2019 17:15;12,857
09.01.2019 17:30;12,942
09.01.2019 17:45;12,752
09.01.2019 18:00;12,664
09.01.2019 18:15;12,778
09.01.2019 18:30;13,053
09.01.2019 18:45;13,265
09.01.2019 19:00;13,411
09.01.2019 19:15;13,194
09.01.2019 19:30;12,817
09.01.2019 19:45;12,382
09.01.2019 20:00;12,086
09.01.2019 20:15;11,841
09.01.2019 20:30;11,526
09.01.2019 20:45;11,342
09.01.2019 21:00;11,153
09.01.2019 21:15;10,945
09.01.2019 21:30;10,714
09.01.2019 21:45;10,867
09.01.2019 22:00;11,104
09.01.2019 22:15;11,395
09.01.2019 22:30;11,156
09.01.2019 22:45;10,826
09.01.2019 23:00;10,568
09.01.2019 23:15;10,232
09.01.2019 23:30;9,938
09.01.2019 23:45;9,657
10.01.2019 00:00;9,437
10.01.2019 00:15;9,264
10.01.2019 00:30;9,069
10.01.2019 00:45;8,771
10.01.2019 01:00;8,381
10.01.2019 01:15;8,058
10.01.2019 01:30;7,894
10.01.2019 01:45;7,81
10.01.2019 02:00;7,823
10.01.2019 02:15;7,819
10.01.2019 02:30;7,655
10.01.2019 02:45;7,557
10.01.2019 03:00;7,52
10.01.2019 03:15;7,515
10.01.2019 03:30;7,518
10.01.2019 03:45;7,546
10.01.2019 04:00;7,641
10.01.2019 04:15;7,716
10.01.2019 04:30;7,736
10.01.2019 04:45;7,794
10.01.2019 05:00;7,82
10.01.2019 05:15;8,037
10.01.2019 05:30;8,128
10.01.2019 05:45;8,198
10.01.2019 06:00;8,324
10.01.2019 06:15;8,641
10.01.2019 06:30;9,019
10.01.2019 06:45;9,325
10.01.2019 07:00;9,584
10.01.2019 07:15;9,869
10.01.2019 07:30;10,08
10.01.2019 07:45;10,262
10.01.2019 08:00;10,408
10.01.2019 08:15;10,54
10.01.2019 08:30;10,498
10.01.2019 08:45;10,471
10.01.2019 09:00;10,452
10.01.2019 09:15;10,348
10.01.2019 09:30;10,322
10.01.2019 09:45;10,286
10.01.2019 10:00;10,24
10.01.2019 10:15;10,327
10.01.2019 10:30;10,325
10.01.2019 10:45;10,334
10.01.2019 11:00;10,415
10.01.2019 11:15;10,525
10.01.2019 11:30;10,668
10.01.2019 11:45;10,795
10.01.2019 12:00;10,922
10.01.2019 12:15;10,955
10.01.2019 12:30;10,952
10.01.2019 12:45;10,937
10.01.2019 13:00;10,917
10.01.2019 13:15;10,89
10.01.2019 13:30;10,855
10.01.2019 13:45;10,808
10.01.2019 14:00;10,729
10.01.2019 14:15;10,626
10.01.2019 14:30;10,559
10.01.2019 14:45;10,542
10.01.2019 15:00;10,539
10.01.2019 15:15;10,413
10.01.2019 15:30;10,377
10.01.2019 15:45;10,43
10.01.2019 16:00;10,546
10.01.2019 16:15;10,709
10.01.2019 16:30;10,912
10.01.2019 16:45;11,173
10.01.2019 17:00;11,396
10.01.2019 17:15;11,93
10.01.2019 17:30;12,357
10.01.2019 17:45;12,592
10.01.2019 18:00;12,747
10.01.2019 18:15;12,815
10.01.2019 18:30;12,806
10.01.2019 18:45;12,728
10.01.2019 19:00;12,689
10.01.2019 19:15;12,581
10.01.2019 19:30;12,474
10.01.2019 19:45;12,295
10.01.2019 20:00;12,159
10.01.2019 20:15;11,9
10.01.2019 20:30;11,622
10.01.2019 20:45;11,37
10.01.2019 21:00;11,081
10.01.2019 21:15;10,797
10.01.2019 21:30;10,54
10.01.2019 21:45;10,795
10.01.2019 22:00;10,971
10.01.2019 22:15;11,44
10.01.2019 22:30;11,262
10.01.2019 22:45;10,919
10.01.2019 23:00;10,585
10.01.2019 23:15;10,234
10.01.2019 23:30;9,931
10.01.2019 23:45;9,635
11.01.2019 00:00;9,39
11.01.2019 00:15;9,124
11.01.2019 00:30;8,876
11.01.2019 00:45;8,649
11.01.2019 01:00;8,457
11.01.2019 01:15;8,294
11.01.2019 01:30;8,128
11.01.2019 01:45;7,987
11.01.2019 02:00;7,851
11.01.2019 02:15;7,79
11.01.2019 02:30;7,754
11.01.2019 02:45;7,675
11.01.2019 03:00;7,654
11.01.2019 03:15;7,66
11.01.2019 03:30;7,628
11.01.2019 03:45;7,61
11.01.2019 04:00;7,651
11.01.2019 04:15;7,749
11.01.2019 04:30;7,84
11.01.2019 04:45;7,956
11.01.2019 05:00;8,052
11.01.2019 05:15;8,245
11.01.2019 05:30;8,268